Skip Page Navigation
NASA JPL Caltech
NASA Logo - Jet Propulsion Laboratory + View the NASA Portal
+ Center for Near-Earth Object Studies
JPL Home Earth Solar System Stars & Galaxies Technology
JPL Solar System Dynamics
BODIES ORBITS EPHEMERIDES TOOLS PHYSICAL DATA DISCOVERY FAQ SITE MAP
JPL Small-Body Database Browser
Search: [ help ]  
146894 (2002 CX59)
Classification: Inner Main-belt Asteroid          SPK-ID: 2146894
Ephemeris | Orbit Diagram | Orbital Elements | Mission Design | Physical Parameters | Discovery Circumstances ]

[ show orbit diagram ]
Orbital Elements at Epoch 2459000.5 (2020-May-31.0) TDB
Reference: JPL 16 (heliocentric ecliptic J2000)
 Element Value Uncertainty (1-sigma)   Units 
e .1033019293423672 6.9284e-08  
a 1.948408321132056 1.2141e-08 au
q 1.747133982412393 1.3362e-07 au
i 17.17609820982975 7.9851e-06 deg
node 297.6475528165342 2.5887e-05 deg
peri 100.50993574 4.5767e-05 deg
M 2.305731642589002 3.7139e-05 deg
tp 2458994.137546091211
(2020-May-24.63754609)
0.00010247 TDB
period 993.3868126093463
2.72
9.2854e-06
2.542e-08
d
yr
n .3623965966030713 3.3874e-09 deg/d
Q 2.14968265985172 1.3396e-08 au
  Orbit Determination Parameters
   # obs. used (total)      393  
   data-arc span      7508 days (20.56 yr)  
   first obs. used      1998-12-14  
   last obs. used      2019-07-05  
   planetary ephem.      DE431  
   SB-pert. ephem.      SB431-N16  
   condition code      0  
   norm. resid. RMS      .54382  
   source      ORB  
   producer      Otto Matic  
   solution date      2020-Feb-24 08:40:18  

Additional Information
 Earth MOID = .838599 au 
 Jupiter MOID = 3.15887 au 
 T_jup = 3.834 
[ show covariance matrix ]

Ephemeris | Orbit Diagram | Orbital Elements | Mission Design | Physical Parameters | Discovery Circumstances ]

Physical Parameter Table
Parameter Symbol Value Units Sigma Reference Notes
absolute magnitude H 16.3   n/a MPO379462  

146894 (2002 CX59)          Discovered 2002-Feb-14 by LINEAR at Socorro
Reference: 20070106/Numbers.arcLast Updated: 2007-01-09
Ephemeris | Orbit Diagram | Orbital Elements | Mission Design | Physical Parameters | Discovery Circumstances ]
ABOUT SSD CREDITS/AWARDS PRIVACY/COPYRIGHT GLOSSARY LINKS
FirstGov 2020-Oct-20 21:14 UT
(server date/time)  
NASA Home Page
Site Manager:   Ryan S. Park
Webmaster  Alan B. Chamberlin